Other Public Products
Issued by NWS Charleston, SC

Current Version | Previous Version | Graphics & Text | Print | Product List | Glossary On
Versions: 1 2 3 4 5 6 7 8 9 10 11 12 13 14 15 16 17 18 19 20 21 22 23 24 25 26 27 28 29 30 31 32 33 34 35 36 37 38 39 40 41 42 43 44 45 46 47 48 49 50
000
FPUS82 KCHS 190724
OPUCHS

TEST...KCHS/KSAV Gateway Observations...TEST
National Weather Service Charleston SC
300 AM EDT TUE SEP 19 2017

NOTE: "fair" indicates few or no clouds below 12,000 feet with no
significant weather and/or obstructions to visibility.

SCZ050-WAZ558-NCZ071-TXZ119-213-PAZ071-DCZ001-FLZ074-172-MI076-
NYZ176-178-MAZ016-IL014-TNZ027-NJZ106-GAZ044-MD014-190800-

...Gateway Observations for Charleston International...

CITY           SKY/WX    TMP DP  RH WIND       PRES   REMARKS
Chas Airport   PTCLDY    70  70 100 CALM      29.94F
Seattle        CLOUDY    51  46  83 S12       29.70S
Charlotte      PTCLDY    67  66  97 CALM      30.00F
Dallas DFW     PTCLDY    79  72  79 S9        29.89S
Dallas Love    PTCLDY    79  70  74 S9        29.90F
Philladelphia  CLOUDY    72  66  81 NE13      30.01F
Wash National  CLOUDY    70  67  90 N10       30.01F
Baltimore      CLOUDY    69  66  90 N7        30.01S
Miami          PTCLDY    81  78  91 W3        29.89F
Detroit        CLOUDY    65  60  84 NE7       30.02F
Newark         CLOUDY    71  67  87 NE14      30.03F
Laguardia      CLOUDY    71  68  90 NE15      30.03F
J F K          CLOUDY    71  68  90 NE14      30.03F
Boston Logan   FOG       63  63 100 NE9       30.14F VSB 1/4
Ft. Lauderdale MOCLDY    82  77  84 N5        29.88F HX  90
Chicago O`Hare LGT RAIN  67  63  87 NE6       29.95F
Chicago Midway LGT RAIN  68  65  90 CALM      29.96R FOG
Houston Bush   MOCLDY    74  72  93 CALM      29.94R
Houston Hobby  PTCLDY    79  75  87 S5        29.93R
Nashville      PTCLDY    69  66  90 CALM      29.99F
Atlanta        CLEAR     70  65  84 NW3       29.99F

$$

GAZ044-118-TXZ119-213-NCZ071-DCZ001-MDZ014-506-PAZ021-071-NJZ106-
NYZ176-178-MAZ106-OHZ011-021-055-MIZ076-KYZ091-ILZ014-INZ047-
MNZ060-ONZ431-190800-

...Gateway Observations for Savannah International...

CITY           SKY/WX    TMP DP  RH WIND       PRES   REMARKS
Savannah Arpt  CLEAR     73  70  90 CALM      29.95F
Atlanta        CLEAR     70  65  84 NW3       29.99F
Charlotte      PTCLDY    67  66  97 CALM      30.00F
Dallas DFW     PTCLDY    79  72  79 S9        29.89S
Houston Bush   MOCLDY    74  72  93 CALM      29.94R
Wash National  CLOUDY    70  67  90 N10       30.01F
Wash Dulles    PTCLDY    67  66  97 N6        30.01F
Baltimore      CLOUDY    69  66  90 N7        30.01S
Philadelphia   CLOUDY    72  66  81 NE13      30.01F
Newark         CLOUDY    71  67  87 NE14      30.03F
Laguardia      CLOUDY    71  68  90 NE15      30.03F
J F K          CLOUDY    71  68  90 NE14      30.03F
Boston         FOG       63  63 100 NE9       30.14F VSB 1/4
Pittsburg      CLEAR     66  63  90 SE3       30.03F
Akron          CLEAR     67  60  78 E5        30.03F
Cleveland      CLOUDY    70  64  81 S3        30.02F
Cincinnati     CLOUDY    70  66  87 S5        29.98F
Columbus       CLOUDY    67  67  99 CALM      29.99F
Detroit        CLOUDY    65  60  84 NE7       30.02F
Chicago O`Hare LGT RAIN  67  63  87 NE6       29.95F
Minneapolis    CLOUDY    59  57  93 SE7       29.93F
Indianapolis   CLOUDY    70  68  93 S5        29.95F
Toronto Canada MOCLDY    66  64  94 N8        30.01F

$$




USA.gov is the U.S. government's official web portal to all federal, state and local government web resources and services.